Voltar ao catálogo

STARLINK-5036

AtivoComunicaçõesVLEO
NORAD 53917·PAYLOAD·🇺🇸 United States

Lançado Sep 24, 2022 de Cape Canaveral Space Force Station

Loading…

Próximas Passagens (próximas 24 horas)

TLE

AtualizadoSource: CelesTrak SupGP

Época: Sep 14, 2026, 20:49 UTC

1 53917C 22119AH  26257.86784722 -.00042440  00000+0 -16007-2 0  2574
2 53917  53.1586 149.5913 0001502  92.6452 224.7625 15.26535642    11

Acompanhe STARLINK-5036 em tempo real com AllMySat

Download on the App Store